Clarksburg, WV

9:15 PM EST on November 14, 2019 (GMT -0500)
Benedum

Weather History for KCKB - September, 2019

Change the Weather History Date:

Friday, September 6, 2019

  Actual Average Record
Temperature  
Mean Temperature 71 °F -  
Max Temperature 82 °F 79 °F 97 °F (1954)
Min Temperature 61 °F 55 °F 39 °F (1924)
Cooling Degree Days 6    
Growing Degree Days 21 (Base 50)    
Moisture  
Dew Point 59 °F    
Average Humidity 74    
Maximum Humidity 90    
Minimum Humidity 42    
Precipitation  
Precipitation 0.00 in - - ()
Sea Level Pressure  
Sea Level Pressure 29.90 in    
Wind  
Wind Speed 4 mph (North)    
Max Wind Speed 10 mph    
Max Gust Speed -    
Visibility 8 miles    
Events Fog , Rain    
Averages and records for this station are not official NWS values.
T = Trace of Precipitation, MM = Missing Value Source: NWS Daily Summary

Daily Weather History Graph

Daily Weather History Graph

Search for Another Location

Airport or City:

Astronomy

Sep. 06, 2019 Rise Set
Actual Time 6:53 AM EDT 7:44 PM EDT
Civil Twilight 6:26 AM EDT 8:11 PM EDT
Nautical Twilight 5:54 AM EDT 8:43 PM EDT
Astronomical Twilight 5:20 AM EDT 9:16 PM EDT
Moon 2:57 PM EDT (9/6) 12:03 AM EDT (9/6)
Length of Visible Light 13h 44m
Length of Day
12h 50m
First Quarter, 55% of the Moon is Illuminated
Sep 6
First Quarter
Sep 14
Full
Sep 21
Last Quarter
Sep 28
New
Oct 5
First Quarter

Hourly Weather History & Observations

Time (EDT) Temp. Heat Index Dew Point Humidity Pressure Visibility Wind Dir Wind Speed Gust Speed Precip Events Conditions
12:53 AM 64.9 °F - 60.1 °F 84% 29.94 in 10.0 mi North 4.6 mph - N/A   Overcast
1:53 AM 64.9 °F - 60.1 °F 84% 29.94 in 10.0 mi NE 5.8 mph - N/A   Overcast
2:53 AM 63.0 °F - 59.0 °F 87% 29.92 in 10.0 mi NNE 4.6 mph - N/A   Clear
3:53 AM 63.0 °F - 59.0 °F 87% 29.91 in 10.0 mi North 4.6 mph - N/A   Scattered Clouds
4:05 AM 61.0 °F - 57.9 °F 90% 29.95 in 8.0 mi NNE 3.5 mph - N/A   Mostly Cloudy
4:53 AM 64.0 °F - 60.1 °F 87% 29.91 in 8.0 mi NNE 3.5 mph - N/A   Overcast
5:42 AM 63.0 °F - 60.1 °F 90% 29.93 in 8.0 mi Calm Calm - N/A   Overcast
5:53 AM 62.1 °F - 57.9 °F 86% 29.89 in 7.0 mi North 3.5 mph - N/A   Mostly Cloudy
6:53 AM 62.1 °F - 57.9 °F 86% 29.91 in 6.0 mi NNE 3.5 mph - N/A   Scattered Clouds
7:32 AM 61.0 °F - 57.9 °F 90% 29.94 in 2.5 mi NNE 3.5 mph - N/A   Scattered Clouds
7:36 AM 61.0 °F - 57.9 °F 90% 29.94 in 1.0 mi NNE 3.5 mph - N/A   Mostly Cloudy
7:43 AM 62.1 °F - 57.9 °F 86% 29.95 in 0.8 mi NNE 5.8 mph - N/A   Mostly Cloudy
7:47 AM 62.6 °F - 59.0 °F 88% 29.95 in 1.0 mi NNE 4.6 mph - N/A   Mostly Cloudy
7:53 AM 62.1 °F - 59.0 °F 90% 29.91 in 1.0 mi NE 3.5 mph - N/A   Overcast
8:04 AM 62.1 °F - 59.0 °F 90% 29.94 in 0.2 mi East 3.5 mph - N/A Fog Fog
8:44 AM 63.0 °F - 60.1 °F 90% 29.94 in 2.0 mi Calm Calm - N/A   Overcast
8:53 AM 64.0 °F - 60.1 °F 87% 29.91 in 4.0 mi Calm Calm - N/A   Overcast
9:42 AM 66.0 °F - 60.1 °F 81% 29.94 in 9.0 mi Calm Calm - N/A   Overcast
9:53 AM 66.0 °F - 61.0 °F 84% 29.90 in 10.0 mi Calm Calm - N/A   Overcast
10:20 AM 68.0 °F - 61.0 °F 78% 29.93 in 10.0 mi WNW 3.5 mph - N/A   Partly Cloudy
10:46 AM 70.0 °F - 61.0 °F 73% 29.94 in 10.0 mi Variable 3.5 mph - N/A   Mostly Cloudy
10:53 AM 70.0 °F - 61.0 °F 73% 29.90 in 10.0 mi Calm Calm - N/A   Mostly Cloudy
11:53 AM 73.9 °F - 60.1 °F 62% 29.88 in 10.0 mi WNW 5.8 mph - N/A   Scattered Clouds
12:25 PM 75.0 °F - 60.1 °F 60% 29.91 in 10.0 mi Variable 3.5 mph - N/A   Mostly Cloudy
12:38 PM 75.9 °F - 59.0 °F 56% 29.91 in 10.0 mi Variable 4.6 mph - N/A   Mostly Cloudy
12:53 PM 75.9 °F - 59.0 °F 56% 29.86 in 10.0 mi SW 3.5 mph - N/A   Mostly Cloudy
1:53 PM 80.1 °F 80.4 °F 57.0 °F 45% 29.85 in 10.0 mi Variable 5.8 mph - N/A   Scattered Clouds
2:53 PM 80.1 °F 80.1 °F 55.0 °F 42% 29.82 in 10.0 mi Variable 5.8 mph - N/A   Clear
3:53 PM 81.0 °F 81.0 °F 57.0 °F 44% 29.81 in 10.0 mi West 9.2 mph - N/A   Clear
4:53 PM 79.0 °F - 55.9 °F 45% 29.82 in 10.0 mi West 10.4 mph - N/A   Scattered Clouds
5:53 PM 78.1 °F - 55.9 °F 46% 29.81 in 10.0 mi West 8.1 mph - N/A   Mostly Cloudy
6:53 PM 75.9 °F - 55.9 °F 50% 29.83 in 10.0 mi WNW 6.9 mph - N/A   Mostly Cloudy
7:53 PM 73.0 °F - 57.9 °F 59% 29.85 in 10.0 mi WNW 8.1 mph - 0.00 in Rain Light Rain
8:53 PM 71.1 °F - 59.0 °F 66% 29.86 in 10.0 mi North 3.5 mph - 0.00 in   Overcast
9:53 PM 69.1 °F - 60.1 °F 73% 29.87 in 10.0 mi Calm Calm - N/A   Overcast
10:53 PM 66.9 °F - 61.0 °F 81% 29.87 in 10.0 mi Calm Calm - N/A   Overcast
11:53 PM 69.1 °F - 60.1 °F 73% 29.87 in 10.0 mi Calm Calm - N/A   Overcast